Weather Roundup
Issued by NWS Corpus Christi, TX

Home | Current Version | Previous Version | Text Only | Print | Product List | Glossary On
Versions: 1 2 3 4 5 6 7 8 9 10 11 12 13 14 15 16 17 18 19 20 21 22 23 24 25 26 27 28 29 30 31 32 33 34 35 36 37 38 39 40 41 42 43 44 45 46 47 48 49 50
000
ASUS44 KCRP 212210
HRRCRP

SOUTH TEXAS REGIONAL WEATHER ROUNDUP
NATIONAL WEATHER SERVICE CORPUS CHRISTI TX
500 PM CDT SUN SEP 21 2014


TXZ229>244-212300-
...CORPUS CHRISTI AREA OBSERVATIONS...

CITY           SKY/WX    TMP DP  RH WIND       PRES   REMARKS
CORPUS CHRISTI MOSUNNY   85  74  69 E16G24    29.93F HX  92
NAS CORPUS CHR SUNNY     86  76  71 E17       29.93F HX  96
ROCKPORT       SUNNY     87  72  60 E16       29.93F HX  93
KINGSVILLE NAS MOSUNNY   85  76  74 E21       29.92F HX  94
ALICE          MOSUNNY   87  74  64 E16G23    29.93S HX  95
FALFURRIAS     PTSUNNY  N/A N/A N/A E14G20    29.91F
$$

...VICTORIA AREA OBSERVATIONS...

CITY           SKY/WX    TMP DP  RH WIND       PRES   REMARKS
VICTORIA       SUNNY     92  71  50 E12       29.95F HX  98
BEEVILLE       FAIR      92  67  43 MISG      29.94S HX  95
PLEASANTON     SUNNY     93  63  35 E10G16    29.95F HX  94
SAN ANTONIO    MOSUNNY   91  64  40 E14       29.98F HX  92
$$

...LAREDO AREA OBSERVATIONS...

CITY           SKY/WX    TMP DP  RH WIND       PRES   REMARKS
LAREDO         PTSUNNY   86  74  67 E10       29.96F HX  94
COTULLA        LGT RAIN  80  74  81 E3        29.97S
DEL RIO        CLOUDY    88  69  53 NE8       29.96S HX  92
MCALLEN        MOSUNNY   87  76  69 NE9       29.90S HX  97
HEBBRONVILLE     N/A     81  73  76 E12       29.95R
$$

...OTHER TEXAS OBSERVATIONS...

CITY           SKY/WX    TMP DP  RH WIND       PRES   REMARKS
BROWNSVILLE    MOSUNNY   86  76  71 E8        29.89F HX  96
HOUSTON        MOSUNNY   89  69  51 E6        29.98S HX  93
COL. STATION   MOSUNNY   89  65  44 E9        29.99F HX  91
AUSTIN         MOSUNNY   90  65  43 E14       29.98F HX  92
WACO           SUNNY     92  61  35 E6        30.00F HX  92
FORT WORTH     PTSUNNY   93  60  33 SE6       30.00F HX  93
WICHITA FALLS  SUNNY     92  61  35 SE6       30.02F HX  92
LUBBOCK        LGT RAIN  68  65  90 S9        30.19F
EL PASO        PTSUNNY   86  61  42 NE15      30.06F
$$

...MARINE OBSERVATIONS...

STATION/POSITION TIME  SKY/WX   TEMP    WIND        PRES    VSBY  WAVE   SWELL
                                AIR SEA DIR/SP/G                  HT/PER HT/PER
                 (UTC)          (F)     (DEG/KT/KT) (MB)    (MI)  (FT/S) (FT/S)
PORT ARANSAS     2200            83 85   50/ 18/ 20 1014.2F
BUOY 90 E PORT A 2200            83 85   50/ 17/ 21 1013.7F         5/ 7   2/ 8
BUOY 45 SE BAFFI 2200            83 85   70/ 17/ 21 1011.9F         4/ 8   2/ 8
BUOY 200 E PT IS 2200            84 87  350/  4/  6 1012.0F         4/ 8   3/ 8
BUOY 15 E GALVES 2200            83 84   80/ 12/ 14 1014.4F         3/ 6   2/ 6
$$


USA.gov is the U.S. government's official web portal to all federal, state and local government web resources and services.